This demonstration page uses our WeatherBlox Daily Observations layout. Learn more.

41.86663, -103.66717

Hourly Observations for January 6, 2020

Temp ( °F °C ) Dew Point ( °F °C ) Humidity (%) Winds ( mph kmh ) Pressure ( in mb ) Visibility ( mi km ) Precip ( " mm )
12:53 am 00:53 Mostly Clear 34 1.1 22 -5.6 61 61 W 18 30 30.09 1019 10 16.0934 0 0
1:53 am 01:53 Clear 32 0 20 -6.7 61 61 W 20 31 30.12 1020 10 16.0934 0 0
2:53 am 02:53 Clear 31 -0.6 18 -7.8 59 59 WNW 17 28 30.14 1021 10 16.0934 0 0
3:53 am 03:53 Clear 31 -0.6 18 -7.8 59 59 WNW 16 26 30.14 1021 10 16.0934 0 0
4:53 am 04:53 Clear 26 -3.3 18 -7.8 71 71 WNW 10 17 30.17 1022 10 16.0934 0 0
5:53 am 05:53 Clear 24 -4.4 17 -8.3 75 75 WNW 8 13 30.21 1023 10 16.0934 0 0
6:53 am 06:53 Clear 23 -5 16 -8.9 74 74 WNW 7 11 30.22 1023 10 16.0934 0 0
7:53 am 07:53 Sunny 30 -1.1 18 -7.8 61 61 WNW 14 22 30.2 1023 10 16.0934 0 0
8:53 am 08:53 Sunny 34 1.1 19 -7.2 54 54 WNW 15 24 30.21 1023 10 16.0934 0 0
9:53 am 09:53 Sunny 38 3.3 18 -7.8 44 44 WNW 18 30 30.2 1023 10 16.0934 0 0
10:53 am 10:53 Mostly Sunny 40 4.4 18 -7.8 41 41 WNW 23 37 30.19 1022 10 16.0934 0 0
11:53 am 11:53 Mostly Sunny 41 5 16 -8.9 36 36 WNW 22 35 30.17 1022 10 16.0934 0 0
12:53 pm 12:53 Sunny 41 5 17 -8.3 38 38 NW 20 31 30.16 1022 10 16.0934 0 0
1:53 pm 13:53 Mostly Sunny 40 4.4 14 -10 35 35 NW 22 35 30.2 1023 10 16.0934 0 0
2:53 pm 14:53 Sunny 41 5 9 -12.8 27 27 WNW 24 39 30.2 1023 10 16.0934 0 0
3:53 pm 15:53 Sunny 38 3.3 13 -10.6 36 36 NW 12 19 30.22 1024 10 16.0934 0 0
4:53 pm 16:53 Clear 35 1.7 16 -8.9 46 46 W 8 13 30.27 1025 10 16.0934 0 0
5:53 pm 17:53 Clear 32 0 17 -8.3 54 54 WSW 8 13 30.27 1025 10 16.0934 0 0
6:53 pm 18:53 Clear 30 -1.1 18 -7.8 61 61 WNW 7 11 30.27 1025 10 16.0934 0 0
7:53 pm 19:53 Clear 31 -0.6 18 -7.8 59 59 W 12 19 30.24 1024 10 16.0934 0 0
8:53 pm 20:53 Clear 27 -2.8 18 -7.8 69 69 WNW 7 11 30.22 1023 10 16.0934 0 0
9:53 pm 21:53 Clear 27 -2.8 18 -7.8 69 69 NW 8 13 30.19 1022 10 16.0934 0 0
10:53 pm 22:53 Clear 27 -2.8 18 -7.8 69 69 NNW 8 13 30.16 1021 10 16.0934 0 0
11:53 pm 23:53 Clear 30 -1.1 18 -7.8 61 61 undefined N/A 30.13 1020 10 16.0934 0 0

Powered by AerisWeather